www.pogodaiklimat.ru

Погода и климат >> Архив погоды >> Австралия >> Carnarvon Airport


ПОГОДА в Carnarvon Airport

  • Прогноз погоды в Carnarvon Airport
  • Монитор погоды в Carnarvon Airport
  • Климат города

АРХИВ ПОГОДЫ в Carnarvon Airport

Время (UTC), дата Ветер
(напр.,м/с)
 
Видим.   Явления Облачность Т
(С)
Тd
(С)
f
(%)
Тe
(С)
Тes
(С)
Комфортность P
(гПа)
Po
(гПа)
Тmin
(С)
Tmax
(С)
R
(мм)
R24
(мм)
S
(см)
22 17.04 Ю 6 н/о н/о +21.8 +16.1 70 +26 +26 душно 1015.4 1014.9
00 18.04 Ю 7 н/о н/о +22.3 +13.6 58 +25 +25 комфорт 1016.0 1015.0
01 18.04 Ю 8 25 км 9/6
[Cu Sc Ac trans Ci fib]
+25.0 +12.6 46 +27 +27 жарко 1016.2 1015.7 +21.3
03 18.04 Ю 8 н/о н/о +26.4 +16.6 55 +30 +30 душно 1015.6 1014.6
04 18.04 Ю 7 н/о н/о +26.5 +16.7 55 +30 +30 душно 1014.9 1014.4
06 18.04 Ю 9 н/о н/о +25.4 +18.1 64 +30 +30 душно 1013.7 1012.7
07 18.04 Ю 9 29 км 5/5
[Sc]
+26.3 +15.7 52 +29 +30 жарко 1013.3 1012.8
09 18.04 Ю 7 н/о н/о +26.0 +18.2 62 +31 +31 очень
душно
1013.4 1012.4
10 18.04 Ю 8 н/о н/о +24.3 +19.6 75 +30 +30 очень
душно
1013.7 1013.2
12 18.04 Ю 5 н/о н/о +23.9 +19.2 75 +29 +29 душно 1014.7 1013.7
13 18.04 Ю 6 н/о н/о +23.3 +17.5 70 +29 +29 душно 1014.7 1014.2 +28.4
15 18.04 Ю 6 н/о н/о +22.2 +18.4 79 +27 +27 душно 1014.6 1013.6
16 18.04 Ю 5 н/о н/о +21.6 +17.8 79 +26 +26 душно 1014.3 1013.8
18 18.04 Ю 5 н/о н/о +20.9 +16.9 78 +25 +25 комфорт 1013.7 1012.7
19 18.04 Ю 5 н/о н/о +20.4 +17.0 81 +24 +24 комфорт 1013.4 1012.9
21 18.04 ЮВ 5 н/о н/о +19.6 +16.6 83 +22 +22 комфорт 1013.4 1012.4
22 18.04 ЮВ 6 н/о н/о +19.3 +16.0 81 +21 +21 комфорт 1013.9 1013.4
00 19.04 ЮВ 6 н/о н/о +20.5 +14.6 69 +23 +23 комфорт 1014.1 1013.1
01 19.04 ЮВ 7 20 км 4/0
[Ac trans Ci sp]
+22.3 +13.6 58 +25 +27 комфорт 1014.3 1013.8 +18.6
03 19.04 Ю 6 н/о н/о +25.0 +16.4 59 +28 +28 жарко 1013.9 1012.9
04 19.04 Ю 7 н/о н/о +25.0 +17.7 64 +29 +29 душно 1013.1 1012.6
06 19.04 Ю 8 н/о н/о +24.6 +17.3 64 +29 +29 душно 1012.0 1011.0
07 19.04 Ю 8 29 км 5/0
[Ac As Ci sp]
+24.8 +17.3 63 +29 +30 душно 1011.9 1011.4
09 19.04 Ю 7 н/о н/о +24.3 +17.8 67 +28 +28 душно 1011.9 1010.9
10 19.04 Ю 5 н/о н/о +23.7 +17.9 70 +28 +28 душно 1012.3 1011.8
12 19.04 Ю 5 н/о н/о +22.6 +18.2 76 +28 +28 душно 1013.8 1012.8
13 19.04 Ю 6 н/о н/о +22.0 +17.2 74 +26 +26 душно 1014.1 1013.6 +26.5
15 19.04 Ю 6 н/о н/о +20.9 +16.3 75 +24 +24 комфорт 1014.1 1013.1
16 19.04 Ю 5 н/о н/о +21.0 +16.8 77 +25 +25 комфорт 1013.6 1013.1
18 19.04 ЮВ 3 н/о н/о +19.9 +15.7 77 +23 +23 комфорт 1013.6 1012.6
19 19.04 ЮВ 4 н/о н/о +20.1 +15.5 75 +23 +23 комфорт 1013.5 1013.0
21 19.04 ЮВ 7 н/о н/о +19.8 +15.0 74 +21 +21 комфорт 1013.7 1012.7
22 19.04 ЮВ 6 н/о н/о +19.4 +14.0 71 +21 +21 комфорт 1014.1 1013.6
00 20.04 ЮВ 6 н/о н/о +20.0 +13.2 65 +22 +22 комфорт 1014.8 1013.8
01 20.04 ЮВ 5 21 км 9/5
[Sc Ac As]
+21.0 +12.7 59 +24 +24 комфорт 1015.4 1014.9 +18.6
03 20.04 ЮВ 4 н/о н/о +27.2 +10.8 36 +28 +28 жарко 1014.8 1013.8
04 20.04 В 3 н/о н/о +27.8 +14.4 44 +30 +30 жарко 1014.1 1013.6
06 20.04 Ю 6 н/о н/о +26.4 +17.7 59 +31 +31 душно 1012.4 1011.4
07 20.04 Ю 8 29 км 6/1
[Sc Cc]
+25.8 +17.7 61 +30 +31 душно 1012.3 1011.8
09 20.04 Ю 6 н/о н/о +24.6 +18.8 70 +29 +29 душно 1012.9 1011.9
10 20.04 Ю 7 н/о н/о +23.3 +18.0 72 +29 +29 душно 1013.5 1013.0
12 20.04 Ю 4 н/о н/о +22.3 +17.7 75 +27 +27 душно 1014.1 1013.1
13 20.04 Ю 4 н/о н/о +21.9 +17.9 78 +27 +27 душно 1014.4 1013.9 +30.3
15 20.04 Ю 4 н/о н/о +21.0 +17.6 81 +25 +25 комфорт 1014.0 1013.0
16 20.04 ЮВ 4 н/о н/о +20.6 +17.2 81 +24 +24 комфорт 1013.5 1013.0
18 20.04 ЮВ 4 н/о н/о +18.3 +15.2 82 +19 +19 1013.7 1012.7
19 20.04 Ю 3 н/о н/о +16.9 +14.5 86 +17 +17 1013.8 1013.3
21 20.04 Ю 3 н/о н/о +16.6 +15.1 91 +16 +16 1013.5 1012.5
22 20.04 Ю 4 н/о н/о +16.1 +14.6 91 +15 +15 1013.6 1013.1
00 21.04 Ю 4 н/о н/о +19.9 +14.3 70 +22 +22 комфорт 1014.8 1013.8
01 21.04 Ю 4 н/о н/о +24.0 +10.7 43 +25 +25 комфорт 1015.1 1014.6 +15.3
03 21.04 Ю 5 н/о н/о +26.4 +13.5 45 +28 +28 жарко 1014.5 1013.5
04 21.04 Ю 7 н/о н/о +26.4 +16.9 56 +30 +30 душно 1013.9 1013.4
06 21.04 ЮЗ 6 н/о н/о +26.5 +19.1 64 +32 +32 очень
душно
1011.8 1010.8
07 21.04 ЮЗ 6 н/о н/о +25.9 +18.1 62 +30 +30 душно 1011.6 1011.1
09 21.04 Ю 5 н/о н/о +26.2 +18.8 64 +31 +31 очень
душно
1011.5 1010.5
10 21.04 Ю 3 н/о н/о +24.4 +19.0 72 +29 +29 душно 1011.7 1011.2
12 21.04 ЮЗ 4 н/о н/о +23.8 +19.5 77 +29 +29 душно 1012.4 1011.4
13 21.04 Ю 5 н/о н/о +23.8 +18.9 74 +29 +29 душно 1012.5 1012.0 +27.7
15 21.04 Ю 3 н/о н/о +21.8 +17.4 76 +26 +26 душно 1012.1 1011.1
16 21.04 Ю 4 н/о н/о +21.1 +17.7 81 +25 +25 комфорт 1012.2 1011.7
18 21.04 Ю 4 н/о н/о +21.7 +18.7 83 +27 +27 душно 1012.4 1011.4
19 21.04 Ю 2 н/о н/о +20.1 +17.1 83 +24 +24 комфорт 1012.0 1011.5
21 21.04 Ю 3 н/о н/о +22.0 +19.4 85 +27 +27 душно 1012.6 1011.6
22 21.04 Ю 4 н/о н/о +22.3 +19.8 86 +28 +28 душно 1013.0 1012.5
00 22.04 Ю 5 н/о н/о +23.2 +19.4 79 +30 +30 очень
душно
1014.3 1013.3
01 22.04 Ю 5 н/о н/о +23.9 +19.2 75 +29 +29 душно 1014.7 1014.2 +20.0
03 22.04 Ю 5 н/о н/о +27.9 +16.2 49 +31 +31 душно 1014.4 1013.4
04 22.04 Ю 6 н/о н/о +27.2 +17.4 55 +31 +31 душно 1014.1 1013.6
06 22.04 СВ 4 н/о н/о +32.8 +16.6 38 +31 +31 жарко 1011.9 1010.9
07 22.04 ЮЗ 6 н/о н/о +27.0 +17.5 56 +31 +31 душно 1012.7 1012.2
09 22.04 ЮЗ 7 н/о н/о +25.1 +19.0 69 +30 +30 душно 1013.5 1012.5
10 22.04 ЮЗ 7 н/о н/о +24.7 +19.8 74 +30 +30 очень
душно
1014.6 1014.1
12 22.04 Ю 5 н/о н/о +24.2 +21.5 85 +31 +31 очень
душно
1016.0 1015.0
13 22.04 Ю 5 н/о н/о +23.9 +20.2 80 +30 +30 очень
душно
1016.0 1015.5 +34.7
15 22.04 Ю 6 н/о н/о +23.1 +19.9 82 +30 +30 очень
душно
1015.5 1014.5
16 22.04 Ю 6 н/о н/о +22.9 +19.7 82 +29 +29 очень
душно
1015.7 1015.2
18 22.04 Ю 5 н/о н/о +21.8 +18.4 81 +27 +27 душно 1015.6 1014.6
19 22.04 Ю 5 н/о н/о +21.8 +18.0 79 +26 +26 душно 1015.6 1015.1
21 22.04 ЮВ 3 н/о н/о +21.5 +18.5 83 +26 +26 душно 1015.9 1014.9
22 22.04 ЮВ 4 н/о 1/1 600 м
[]
+21.0 +17.8 82 +25 +25 комфорт 1016.3 1015.8
00 23.04 ЮВ 5 н/о н/о +22.2 +18.6 80 +27 +27 душно 1017.3 1016.3
01 23.04 СВ 8 19 км 9/4
[Frnb Ac As Cc]
+23.6 +16.6 65 +27 +27 жарко 1017.7 1017.2 +20.4
03 23.04 Ю 8 н/о н/о +26.1 +16.6 56 +30 +30 душно 1017.2 1016.2
04 23.04 Ю 10 н/о н/о +25.7 +17.9 62 +30 +30 душно 1016.6 1016.1
06 23.04 Ю 9 н/о н/о +26.6 +16.8 55 +30 +30 душно 1015.3 1014.3
07 23.04 Ю 9 29 км 5/1
[Sc Ac cast Cc]
+25.9 +16.5 56 +29 +30 душно 1015.2 1014.7
09 23.04 Ю 8 н/о н/о +24.7 +16.9 62 +28 +28 душно 1015.8 1014.8
10 23.04 Ю 7 н/о н/о +23.4 +17.4 69 +29 +29 душно 1016.0 1015.5
12 23.04 Ю 9 н/о н/о +23.0 +16.8 68 +28 +28 душно 1017.1 1016.1
13 23.04 Ю 7 н/о н/о +22.3 +16.3 69 +27 +27 душно 1017.7 1017.2 +27.5
15 23.04 Ю 6 н/о н/о +21.2 +16.2 73 +25 +25 комфорт 1017.1 1016.1
16 23.04 Ю 7 н/о н/о +21.0 +16.2 74 +24 +24 комфорт 1016.9 1016.4
18 23.04 ЮВ 5 н/о н/о +20.1 +15.3 74 +22 +22 комфорт 1016.3 1015.3
19 23.04 Ю 6 н/о н/о +20.1 +15.5 75 +22 +22 комфорт 1016.1 1015.6
21 23.04 Ю 5 н/о н/о +19.4 +15.5 78 +21 +21 комфорт 1016.4 1015.4
22 23.04 ЮВ 6 н/о н/о +19.0 +15.3 79 +20 +20 1017.0 1016.5
00 24.04 Ю 6 н/о н/о +20.2 +14.8 71 +22 +22 комфорт 1017.9 1016.9
01 24.04 Ю 10 20 км 9/0
[Ac und Cs]
+22.3 +13.6 58 +25 +26 комфорт 1018.1 1017.6 +18.8
03 24.04 Ю 8 н/о н/о +25.4 +14.2 50 +28 +28 жарко 1017.3 1016.3
04 24.04 Ю 8 н/о н/о +23.6 +15.6 61 +27 +27 жарко 1016.3 1015.8
06 24.04 Ю 9 н/о н/о +24.0 +15.0 57 +27 +27 жарко 1014.8 1013.8
07 24.04 Ю 8 29 км 10/0
[Ac inh]
+24.6 +15.0 55 +27 +28 жарко 1014.4 1013.9
09 24.04 Ю 7 н/о н/о +23.5 +17.0 67 +27 +27 душно 1014.8 1013.8
10 24.04 Ю 6 н/о н/о +23.1 +18.0 73 +29 +29 очень
душно
1014.9 1014.4
12 24.04 Ю 9 н/о н/о +22.2 +16.9 72 +27 +27 душно 1015.9 1014.9
13 24.04 Ю 9 н/о н/о +21.8 +16.7 73 +26 +26 душно 1016.4 1015.9 +25.9
15 24.04 Ю 9 н/о н/о +21.4 +16.1 72 +25 +25 комфорт 1016.3 1015.3
18 24.04 Ю 7 н/о н/о +20.3 +15.7 75 +23 +23 комфорт 1015.2 1014.2
19 24.04 Ю 6 н/о н/о +20.3 +16.1 77 +23 +23 комфорт 1014.9 1014.4

 

Местоположение метеостанции Carnarvon Airport (Западная Австралия, Австралия): широта -24.88 долгота 113.66 высота над уровнем моря 8 м.

В архиве по умолчанию представлена погода в Carnarvon Airport за последнюю неделю. Архивные данные за месяц целиком и за предыдущие месяцы, начиная с января 2011 года, Вы можете получить, выбрав интересующий диапазон дат из раскрывающегося списка и нажав кнопку "Ввод!".


*Определитесь, кто Вы:
робот инопланетянин человек

Внимание! Время в таблицах - всемирное. Для получения местного времени необходимо прибавить поправку, которая в Carnarvon Airport равна 8 ч.

Смотрите также архив погоды в соседних городах и на ближайших метеорологических станциях:

Погода в Shark Bay Airport (Западная Австралия, Австралия) (114 км)
Погода в Learmonth Airport (Западная Австралия, Австралия) (298 км)
Погода в Onslow Airport (Западная Австралия, Австралия) (387 км)
Погода в Thevenard Island (Западная Австралия, Австралия) (406 км)
Погода в Geraldton Airport (Западная Австралия, Австралия) (448 км)
Погода в Paraburdoo Aero (Западная Австралия, Австралия) (457 км)
Погода в Mardie (Западная Австралия, Австралия) (475 км)
Погода в Barrow Island Airport (Западная Австралия, Австралия) (479 км)
Погода в Varanus Island (Западная Австралия, Австралия) (510 км)
Погода в Meekatharra Airport (Западная Австралия, Австралия) (526 км)

Пояснения к столбцам:

Ветер - указаны скорость ветра в м/с - средняя за 10 мин, порывы в срок и между сроками (в фигурных скобках) и направление, откуда дует ветер: С - северный, СВ - северо-восточный, В - восточный, ЮВ - юго-восточный, Ю - южный, ЮЗ - юго-западный, З - западный, СЗ - северо-западный.
Видимость - горизонтальная дальность видимости в метрах или километрах. При видимости от 1 до 10 км при отсутствии осадков обычно наблюдается дымка, при ухудшении видимости до 1 км и менее - туман. В сухую погоду видимость может ухудшаться дымом, пылью или мглою.
Явления - указаны атмосферные явления, наблюдавшиеся в срок или в последний час перед сроком; фигурными скобками обозначены явления, наблюдавшиеся между сроками (за 1-3 часа до срока); квадратными скобками обозначены град или гололедные отложения с указанием их диаметра в мм.
Облачность - указаны через наклонную черту общая и нижняя облачность в баллах и высота нижней границы облаков в метрах; квадратными скобками обозначены формы облаков: Ci - перистые, Cs - перисто-слоистые, Cc - перисто-кучевые, Ac - высококучевые, As - высокослоистые, Sc - слоисто-кучевые, Ns - слоисто-дождевые, Cu - кучевые, Cb - кучево-дождевые. Подробнее классификацию облаков см. в Атласе облаков (PDF).
T - Температура воздуха - температура, измеренная на высоте 2 м над землей.
Td - Температура точки росы - температура, при понижении до которой содержащийся в воздухе водяной пар достигнет насыщения.
f - Относительная влажность воздуха - влажноcть воздуха, измеренная на высоте 2 м над землей.
Te - Эффективная температура - температура, которую ощущает одетый по сезону человек в тени. Характеристика душности погоды. При расчете учитывается влияние влажности воздуха и скорости ветра на теплоощущения человека.
Tes - Эффективная температура на солнце - температура, которую ощущает человек, с поправкой на солнечный нагрев. Характеристика знойности погоды. Зависит от высоты солнца над горизонтом, облачности и скорости ветра. Ночью, в пасмурную погоду, а также при ветре 12 м/с и более поправка равна нулю.
P - Атмосферное давление - приведенное к уровню моря атмосферное давление.
Po - Атмосферное давление - измеренное на уровне метеостанции атмосферное давление.
Tmin - Минимальная температура - минимум температуры воздуха на высоте 2 м над землей.
Tmax - Максимальная температура - максимум температуры воздуха на высоте 2 м над землей.
R - Количество осадков - Количество выпавших осадков за период времени, мм. При наведении курсора мыши на число - период времени, за который выпало указанное количество осадков.
R24 - Количество осадков - Количество выпавших осадков за 24 часа, мм.
S - Снежный покров - Высота снежного покрова, см. При наведении курсора мыши на число - состояние снежного покрова и степень покрытия местности в баллах.